Zurück zum Katalog

FENGYUN 1C DEB

AktivSSO
NORAD 29754·DEBRIS·🇨🇳 China

Gestartet May 10, 1999 von Taiyuan Satellite Launch Center

Loading…

Nächste Überflüge (nächste 24 Stunden)

TLE

AktuellSource: Space-Track

Epoche: Sep 14, 2026, 13:30 UTC

1 29754U 99025AU  26257.56311810  .00001263  00000-0  61051-3 0  9997
2 29754  98.8945   6.2931 0036443 169.3965 202.9397 14.20042702 12548

Verfolge FENGYUN 1C DEB in Echtzeit mit AllMySat

Download on the App Store